Погода в Казачинске

Погода в Казачинске : погода сейчас, прогноз погоды и архив. Всё, что Вы хотите узнать о погоде в Казачинске!

Хотите узнать прогноз погоды в Казачинске? Тогда Вам сюда: Погода в Казачинске

Поиск расширенной информации на нашем сайте:

Другие новости

Новости СМИ2

Главная страница сайта

Новости сайта

03.07.2017

Напоминаем, что на нашем специализированном сайте Метеоцентр.Азия вы можете получить высокодетализированные автоматические прогнозы погоды по пунктам России, СНГ и мира в авиационном формате (включающие направление и скорость ветра, видимость, явления погоды, количество и форму облачности, нижнюю и верхнюю границу облачности).

Рекомендуем: Только отдых в тунисе можно назвать полноценным отдыхом души и тела.

Погода в Казачинске - сегодня

Время (UTC), дата Ветер
(°,м/с) 
Видим.   Явления Облачность Т
(°С)
Тd
(°С)
f(%) Тe
(°С)
Pmin
(гПа)
dP
(гПа)
Po
(мм)
O2
(г/м3)
Тmin Tmax R s Состояние
почвы
00 22.05.18 310 (СЗ) 10 км  слаб. ливневой дождь  10/10 300 м кучево-дожд. 
[Cb cap]
+3.3 +0.8 84 +3  1002.7  -1.7  720  286  +0.3      влажная 
03 22.05.18 310 (СЗ) 10 км  слаб. ливневой дождь  10/10 300 м кучево-дожд. 
[Cb cap]
+5.6 +1.3 74 +4  1000.3  -2  718  283           
12 22.05.18 180 (Ю) 20000 м  {ливн. осадки}  9/9 300 м кучево-дожд. 
[Cb cap]
+7.9 +2.9 71 +8  993.9  -0.5  714  279    +12.4  0.4     
15 22.05.18 260 (З) н/о    8/8 600 м кучево-дожд. 
[Cb cap]
+4.8 +2.6 86 +6  993.3  -1.1  713  282           
18 22.05.18 190 (Ю) н/о    9/9 600 м кучево-дожд. 
[Cb cap]
+2.4 +1.3 92 +3  992.9  -0.7  713  284           
21 22.05.18 270 (З) 20000 м    10/4 600 м кучево-дожд., средняя 
[Cb cap|As op]
+7.2 +1.6 68 +8  991.9  -0.3  712  279           
00 23.05.18 240 (ЮЗ) 20000 м    10/6 300 м кучево-дожд., средняя 
[Cb cap|As op]
+8 +2 66 +7  991.6  -0.2  712  278  +1.7        влажная 
03 23.05.18 310 (СЗ) 20000 м    10/10 300 м кучево-дожд. 
[Cb cap]
+9.2 +2.6 63 +9  990.8  -0.6  712  277           
06 23.05.18 290 (З) 20000 м  {ливн. осадки}  9/9 300 м кучево-дожд. 
[Cb cap]
+10.6 +4.7 67 +11  990.2  -0.3  712  275           
09 23.05.18 030 (СВ) 20000 м  {ливн. осадки}  9/9 300 м кучево-дожд. 
[Cb cap]
+11.9 +4.1 59 +12  990.4  0.4  712  274           
12 23.05.18 290 (З) 20000 м  в посл. час ливневой дождь  9/9 600 м кучево-дожд. 
[Cb cap]
+9.9 +6 77 +10  992.9  2.1  713  276    +12     
15 23.05.18 210 (ЮЗ) н/о    8/8 600 м кучево-дожд. 
[Cb cap]
+7.7 +4.6 81 +8  994.8  1.5  715  279           
18 23.05.18 тихо ()   н/о    9/9 600 м кучево-дожд. 
[Cb cap]
+4.1 +2.9 92 +4  996.8  1.4  716  284           
21 23.05.18 210 (ЮЗ) 20000 м    9/9 600 м кучево-дожд. 
[Cb cap]
+4.1 +3.1 93 +5  998.7  1.8  717  284           
00 24.05.18 тихо ()   20000 м    9/9 600 м кучево-дожд. 
[Cb cap]
+8 +5 81 +8  1000.2  719  280  +3.8        влажная 
03 24.05.18 190 (Ю) 20000 м    5/4 600 м кучево-дожд., верхняя 
[Cb cap|Ci fib]
+14.3 +3 46 +15  999.7  0.4  719  275           
06 24.05.18 160 (Ю) 20000 м    9/9 600 м кучево-дожд. 
[Cb cap]
+16.1 +2.7 41 +17  1001  1.5  720  273           
09 24.05.18 320 (СЗ) 20000 м    9/9 600 м кучево-дожд. 
[Cb cap]
+16.8 +2.4 38 +18  1002.6  1.7  721  273           
12 24.05.18 360 (С) 20000 м    9/9 600 м кучево-дожд. 
[Cb cap]
+14.9 +2.9 44 +16  1005.4  2.4  723  276    +17.7       
15 24.05.18 030 (СВ) н/о    9/8 600 м кучево-дожд., верхняя 
[Cb cap|Ci fib]
+12.3 +3.4 55 +14  1007.7  1.8  724  279           
18 24.05.18 010 (С) н/о    9/8 600 м кучево-дожд., верхняя 
[Cb cap|Ci fib]
+10.7 +3.7 62 +11  1008.5  0.5  725  280           
21 24.05.18 010 (С) 20000 м    9/9 600 м кучево-дожд. 
[Cb cap]
+8.9 +3.3 68 +8  1010.3  1.5  726  283           
00 25.05.18 350 (С) 10 км  слаб. ливневой дождь  10/10 300 м кучево-дожд. 
[Cb cap]
+8.3 +3.3 71 +8  1012  1.6  727  284  +8    0.3    влажная 
03 25.05.18 020 (С) 20000 м    10/10 600 м кучево-дожд. 
[Cb cap]
+10 +3.5 64 +10  1011.2  -0.5  727  282           
06 25.05.18 360 (С) 20000 м    9/9 600 м кучево-дожд. 
[Cb cap]
+12.8 +4.5 57 +13  1009.6  -1.2  726  279           
Время (UTC), дата Ветер
(°,м/с) 
Видим.   Явления Облачность Т
(°С)
Тd
(°С)
f(%) Тe
(°С)
Pmin
(гПа)
dP
(гПа)
Po
(мм)
O2
(г/м3)
Тmin Tmax R s Состояние
почвы

Для получения пояснительной информации подведите курсор к названию столбца.

ПОГОДА в Казачинске - архив

Всё, что Вы хотите узнать о погоде в Казачинске - удобно и подробно!

Выберите нужную дату (начиная с 1 января 2015* года) и нажмите кнопку "Найти".
Будут отображены архивные сводки погоды по пункту Казачинск, начиная с указанной даты.


Отображать данные в формате CSV (для использования в таблицах Excel)


Внимание! Наш архив погоды предназначен исключительно для личного некоммерческого использования в познавательных целях. Если Вам необходимы официальные справки о состоянии погоды (для производственных, юридических, коммерческих и т.п. целей), обращайтесь в органы Росгидромета.

*Примечание: данная дата относится к архиву по метеостанциям СССР (Россия, СНГ, Балтия).
Архив по метеостанциям Зарубежной Европы и Азии (кроме Китая) хранится 10 дней, по другим регионам земного шара (Китай, Африка, Америка, Австралия, Океания) - 1 день.

Казачинск - район местоположения метеостанции


Название, широта, долгота, высота метеостанции:
Казачинск 56.3°ш. 107.6°д. 362 м над ур. моря [Российская Федерация]

Дополнительная информация

В oтличие oт бoльшинства пoгoдных сайтoв мы публикуем пoдрoбную метеoинфoрмацию в детальнoм прoфессиoнальнoм фoрмате.

Характеристики температуры и влажнoсти вoздуха измеряются на высoте 2 м в тени вдали oт зданий и деревьев.
Скoрoсть ветра измеряется на высoте 10 м (на урoвне рoста челoвека скoрoсть ветра ниже в 1.5-2 раза). Если метеoстанция нахoдится в гoрoде или в лесу, тo скoрoсть ветра занижена на 2-4 м/с пo сравнению с oткрытым местoм. Скoрoсть ветра над акватoриями крупных рек и oзёр, а также на вершинах хoлмoв на 2-5 м/с выше, чем в oбычных услoвиях.
Атмoсфернoе давление в разных тoчках местнoсти мoжет значительнo oтличаться oт давления на метеoстанции, в зависимoсти oт услoвий рельефа (при пoдъёме на 10 м давление пoнижается примернo на 1 мм рт.ст.).